sat.trackr.live / text

‹ back to catalog

STARLINK-37012

NORAD 68221 · 2026-053Q

PAYLOAD ACTIVE UNKNOWN

§ Identity

Operator
Country
US
Launch date
2026-03-17
Launch site
AFWTR
Launch vehicle
Mass (kg)
RCS (m²)

Purposes: comms

External: N2YO · Heavens-Above · Gunter

§ Orbital elements

Epoch: 2026-09-19T21:54:50.359968Z

Period
93.91 min
Inclination
97.2851°
Eccentricity
0.0001847
Mean motion
15.33454335 rev/d
Perigee alt
464.3 km
Apogee alt
466.8 km
Semi-major
6,843.7 km
B*
5.7695e-4
RAAN
136.7028°
Arg perigee
92.6752°
Mean anomaly
267.4702°
Rev number
2,998

§ Raw data

STARLINK-370121 68221U 26053Q   26262.91308287  .00018603  00000+0  57695-3 0  99932 68221  97.2851 136.7028 0001847  92.6752 267.4702 15.33454335 29983

JSON: /api/v1/satellites/68221 · /tle

For live sub-satellite position, see the globe view (requires WebGL).

§ Visibility from observer

Set your observer location to see the next 7 days of passes ≥ 10°. The values pass through the URL so the page stays shareable.

No JS? Fill the form by hand. The geolocation button needs JavaScript.